Triuchirapalli, India

7:46 PM IST on February 11, 2016 (GMT +0530)
Tiruchirappalli

Weather History for VOTR - September, 2012

Change the Weather History Date:

Tuesday, September 11, 2012

  Actual Average Record
Temperature  
Mean Temperature 89 °F -  
Max Temperature 100 °F 89 °F 100 °F (1999)
Min Temperature 78 °F 77 °F 74 °F (2013)
Cooling Degree Days 24    
Growing Degree Days 39 (Base 50)    
Moisture  
Dew Point 71 °F    
Average Humidity 56    
Maximum Humidity 79    
Minimum Humidity 23    
Precipitation  
Precipitation 0.00 in - - ()
Sea Level Pressure  
Sea Level Pressure 29.76 in    
Wind  
Wind Speed 8 mph ()    
Max Wind Speed 20 mph    
Max Gust Speed -    
Visibility 4.3 miles    
Events      
Averages and records for this station are not official NWS values.
T = Trace of Precipitation, MM = Missing Value Source: Averaged Metar Reports

Daily Weather History Graph

Daily Weather History Graph

Search for Another Location

Airport or City:

Trip Planner

Search our weather history database for the weather conditions in past years. The results will help you decide how hot, cold, wet, or windy it might be!

Date:

Astronomy

Sep. 11, 2012 Rise Set
Actual Time 6:04 AM IST 6:18 PM IST
Civil Twilight 5:43 AM IST 6:39 PM IST
Nautical Twilight 5:19 AM IST 7:03 PM IST
Astronomical Twilight 4:54 AM IST 7:28 PM IST
Moon 1:37 AM IST 2:31 PM IST
Length of Visible Light 12h 55m
Length of Day
12h 13m
Waning Crescent, 25% of the Moon is Illuminated
Sep 11
Waning Crescent
Sep 16
New
Sep 23
First Quarter
Sep 30
Full
Oct 8
Last Quarter

Hourly Weather History & Observations

Time (IST) Temp. Heat Index Dew Point Humidity Pressure Visibility Wind Dir Wind Speed Gust Speed Precip Events Conditions
12:10 AM 80.6 °F 84.6 °F 71.6 °F 74% 29.80 in 3.7 mi SW 4.6 mph - N/A   Scattered Clouds
12:40 AM 80.6 °F 85.4 °F 73.4 °F 79% 29.80 in 3.7 mi WSW 3.5 mph - N/A   Partly Cloudy
1:10 AM 80.6 °F 85.4 °F 73.4 °F 79% 29.80 in 3.7 mi WNW 4.6 mph - N/A   Scattered Clouds
1:40 AM 80.6 °F 85.4 °F 73.4 °F 79% 29.77 in 3.7 mi West 6.9 mph - N/A   Scattered Clouds
2:10 AM 80.6 °F 85.4 °F 73.4 °F 79% 29.77 in 3.7 mi WNW 9.2 mph - N/A   Scattered Clouds
2:30 AM 81 °F - 68 °F 56% 29.77 in 2 mi West 6.9 mph - -   Haze
2:40 AM 80.6 °F 84.6 °F 71.6 °F 74% 29.77 in 3.7 mi West 5.8 mph - N/A   Scattered Clouds
3:10 AM 80.6 °F 83.9 °F 69.8 °F 70% 29.77 in 3.7 mi WNW 6.9 mph - N/A   Scattered Clouds
3:40 AM 80.6 °F 83.9 °F 69.8 °F 70% 29.77 in 3.7 mi West 4.6 mph - N/A   Scattered Clouds
4:10 AM 80.6 °F 83.9 °F 69.8 °F 70% 29.77 in 3.7 mi West 5.8 mph - N/A   Scattered Clouds
5:10 AM 78.8 °F - 69.8 °F 74% 29.77 in 3.7 mi WNW 6.9 mph - N/A   Scattered Clouds
5:30 AM 80 °F - 69 °F 62% 29.77 in 2 mi West 6.9 mph - -   Haze
6:10 AM 78.8 °F - 69.8 °F 74% 29.77 in 3.7 mi West 9.2 mph - N/A   Partly Cloudy
7:10 AM 80.6 °F 83.9 °F 69.8 °F 70% 29.80 in 3.7 mi West 6.9 mph - N/A   Partly Cloudy
7:40 AM 82.4 °F 86.3 °F 69.8 °F 66% 29.80 in 3.7 mi WNW 6.9 mph - N/A   Partly Cloudy
8:10 AM 84.2 °F 88.4 °F 69.8 °F 62% 29.83 in 3.7 mi West 11.5 mph - N/A   Partly Cloudy
8:30 AM 85 °F - 70 °F 52% 29.82 in 2 mi West 11.5 mph - -   Haze
8:40 AM 84.2 °F 89.6 °F 71.6 °F 66% 29.83 in 3.7 mi West 11.5 mph - N/A   Partly Cloudy
9:10 AM 86.0 °F 91.8 °F 71.6 °F 62% 29.83 in 3.7 mi WNW 11.5 mph - N/A   Partly Cloudy
9:40 AM 87.8 °F 93.8 °F 71.6 °F 58% 29.83 in 3.7 mi West 10.4 mph - N/A   Partly Cloudy
10:10 AM 89.6 °F 96.2 °F 71.6 °F 55% 29.83 in 5.0 mi WNW 10.4 mph - N/A   Partly Cloudy
10:40 AM 91.4 °F 98.4 °F 71.6 °F 52% 29.80 in 5.0 mi WNW 12.7 mph - N/A   Partly Cloudy
11:10 AM 93.2 °F 100.5 °F 71.6 °F 49% 29.80 in 5.0 mi WNW 16.1 mph - N/A   Partly Cloudy
11:30 AM 96 °F - 68 °F 30% 29.77 in 2 mi WNW 16.1 mph - -   Haze
11:40 AM 95.0 °F 101.3 °F 69.8 °F 44% 29.77 in 5.0 mi WNW 17.3 mph - N/A   Scattered Clouds
12:10 PM 96.8 °F 103.1 °F 69.8 °F 41% 29.77 in 5.0 mi WNW 17.3 mph - N/A   Scattered Clouds
12:40 PM 96.8 °F 103.1 °F 69.8 °F 41% 29.74 in 6.2 mi WNW 18.4 mph - N/A   Scattered Clouds
1:10 PM 96.8 °F 103.1 °F 69.8 °F 41% 29.74 in 6.2 mi West 19.6 mph - N/A   Scattered Clouds
1:40 PM 96.8 °F 103.1 °F 69.8 °F 41% 29.71 in 6.2 mi WNW 19.6 mph - N/A   Scattered Clouds
2:10 PM 98.6 °F 104.1 °F 68.0 °F 37% 29.71 in 6.2 mi West 19.6 mph - N/A   Scattered Clouds
2:30 PM 100 °F - 65 °F 23% 29.68 in 6 mi West 16.1 mph - -   Mostly Cloudy
2:40 PM 100.4 °F 106.3 °F 68.0 °F 35% 29.68 in 6.2 mi West 18.4 mph - N/A   Scattered Clouds
3:10 PM 100.4 °F 106.3 °F 68.0 °F 35% 29.68 in 6.2 mi West 9.2 mph - N/A   Scattered Clouds
3:40 PM 98.6 °F 104.1 °F 68.0 °F 37% 29.68 in 6.2 mi WNW 17.3 mph - N/A   Scattered Clouds
4:10 PM 98.6 °F 104.1 °F 68.0 °F 37% 29.68 in 6.2 mi SSW 8.1 mph - N/A   Scattered Clouds
4:40 PM 96.8 °F 101.8 °F 68.0 °F 39% 29.68 in 6.2 mi SW 5.8 mph - N/A   Scattered Clouds
5:10 PM 96.8 °F 101.8 °F 68.0 °F 39% 29.68 in 6.2 mi SW 5.8 mph - N/A   Scattered Clouds
5:30 PM 94 °F - 67 °F 31% 29.67 in 6 mi South 6.9 mph - -   Mostly Cloudy
5:40 PM 93.2 °F 97.7 °F 68.0 °F 44% 29.68 in 6.2 mi South 5.8 mph - N/A   Scattered Clouds
6:10 PM 93.2 °F 98.8 °F 69.8 °F 46% 29.68 in 5.0 mi South 9.2 mph - N/A   Scattered Clouds
6:40 PM 93.2 °F 96.2 °F 66.2 °F 41% 29.71 in 5.0 mi West 4.6 mph - N/A   Scattered Clouds
7:10 PM 93.2 °F 97.7 °F 68.0 °F 44% 29.71 in 3.7 mi West 9.2 mph - N/A   Scattered Clouds
7:40 PM 91.4 °F 96.8 °F 69.8 °F 49% 29.74 in 3.7 mi West 3.5 mph - N/A   Scattered Clouds
8:10 PM 87.8 °F 95.6 °F 73.4 °F 62% 29.77 in 3.7 mi SSW 4.6 mph - N/A   Scattered Clouds
8:30 PM 88 °F - 75 °F 57% 29.77 in 2 mi South 6.9 mph - -   Haze
8:40 PM 87.8 °F 97.6 °F 75.2 °F 66% 29.77 in 3.7 mi South 3.5 mph - N/A   Scattered Clouds
9:10 PM 87.8 °F 97.6 °F 75.2 °F 66% 29.80 in 3.7 mi Calm Calm - N/A   Partly Cloudy
9:40 PM 86.0 °F 95.1 °F 75.2 °F 70% 29.80 in 3.7 mi WSW 2.3 mph - N/A   Scattered Clouds
10:10 PM 86.0 °F 95.1 °F 75.2 °F 70% 29.80 in 3.7 mi WSW 2.3 mph - N/A   Partly Cloudy
10:40 PM 84.2 °F 92.3 °F 75.2 °F 74% 29.80 in 3.7 mi SW 2.3 mph - N/A   Partly Cloudy
11:10 PM 84.2 °F 90.9 °F 73.4 °F 70% 29.80 in 3.7 mi WSW 4.6 mph - N/A   Partly Cloudy
11:30 PM 84 °F - 72 °F 59% 29.80 in 2 mi WNW 4.6 mph - -   Haze
11:40 PM 84.2 °F 90.9 °F 73.4 °F 70% 29.80 in 3.7 mi West 4.6 mph - N/A   Partly Cloudy